• In Deutschland
  • Länderverzeichnis
  • Für 7 Tage
  • Wassertemperatur
  • Satellitenkarten
  • Wetterkarte
  • Widgets
  • user-avatar
    Anmelden

    Stündliche Wetter Werdau

    Heute, 21 Juli, Samstag

    Zeit Temperatur Niederschläge Wind Luftdruck Luftfeuchtigkeit
    00:00 +19°C° 0 mm 2 m/S 732 mmHg 74%
    01:00 +19°C° 0 mm 2 m/S 732 mmHg 75%
    02:00 +18°C° 0,1 mm 2 m/S 732 mmHg 75%
    03:00 +18°C° 0,1 mm 2 m/S 732 mmHg 76%
    04:00 +19°C° 0,1 mm 1 m/S 731 mmHg 77%
    05:00 +20°C° 0,2 mm 1 m/S 732 mmHg 77%
    06:00 +21°C° 0,2 mm 1 m/S 732 mmHg 76%
    07:00 +22°C° 0,2 mm 1 m/S 732 mmHg 75%
    08:00 +23°C° 0,4 mm 1 m/S 732 mmHg 72%
    09:00 +24°C° 0,4 mm 1 m/S 732 mmHg 69%
    10:00 +26°C° 0,4 mm 2 m/S 732 mmHg 66%
    11:00 +26°C° 0,7 mm 2 m/S 732 mmHg 64%
    12:00 +27°C° 0,7 mm 2 m/S 732 mmHg 62%
    13:00 +27°C° 0,7 mm 2 m/S 732 mmHg 60%
    14:00 +27°C° 0,5 mm 2 m/S 732 mmHg 63%
    15:00 +26°C° 0,5 mm 2 m/S 731 mmHg 66%
    16:00 +26°C° 0,5 mm 2 m/S 731 mmHg 69%
    17:00 +25°C° 0,3 mm 2 m/S 731 mmHg 72%
    18:00 +24°C° 0,3 mm 1 m/S 731 mmHg 75%
    19:00 +24°C° 0,3 mm 1 m/S 731 mmHg 78%
    20:00 +23°C° 0,2 mm 1 m/S 731 mmHg 80%
    21:00 +21°C° 0,2 mm 1 m/S 731 mmHg 82%
    22:00 +20°C° 0,2 mm 1 m/S 732 mmHg 84%
    23:00 +20°C° 0 mm 1 m/S 732 mmHg 84%

    Morgen, 22 Juli, Sonntag

    Zeit Temperatur Niederschläge Wind Luftdruck Luftfeuchtigkeit
    00:00 +19°C° 0 mm 1 m/S 731 mmHg 85%
    01:00 +19°C° 0 mm 1 m/S 731 mmHg 85%
    02:00 +19°C° 0 mm 1 m/S 731 mmHg 85%
    03:00 +18°C° 0 mm 1 m/S 731 mmHg 85%
    04:00 +18°C° 0 mm 1 m/S 731 mmHg 85%
    05:00 +19°C° 0 mm 1 m/S 732 mmHg 82%
    06:00 +19°C° 0 mm 0 m/S 732 mmHg 79%
    07:00 +20°C° 0 mm 0 m/S 732 mmHg 76%
    08:00 +23°C° 0,2 mm 1 m/S 732 mmHg 70%
    09:00 +25°C° 0,2 mm 1 m/S 732 mmHg 64%
    10:00 +26°C° 0,2 mm 2 m/S 732 mmHg 58%
    11:00 +27°C° 0,3 mm 2 m/S 732 mmHg 56%
    12:00 +27°C° 0,3 mm 2 m/S 732 mmHg 54%
    13:00 +28°C° 0,3 mm 2 m/S 732 mmHg 51%
    14:00 +28°C° 0,3 mm 2 m/S 732 mmHg 51%
    15:00 +28°C° 0,3 mm 2 m/S 732 mmHg 52%
    16:00 +28°C° 0,3 mm 2 m/S 732 mmHg 52%
    17:00 +27°C° 0,1 mm 2 m/S 732 mmHg 57%
    18:00 +26°C° 0,1 mm 1 m/S 732 mmHg 62%
    19:00 +24°C° 0,1 mm 1 m/S 732 mmHg 68%
    20:00 +23°C° 0,1 mm 1 m/S 732 mmHg 70%
    21:00 +21°C° 0,1 mm 1 m/S 732 mmHg 73%
    22:00 +20°C° 0,1 mm 1 m/S 732 mmHg 76%
    23:00 +19°C° 0 mm 1 m/S 732 mmHg 78%

    übermorgen, 23 Juli, Montag

    Zeit Temperatur Niederschläge Wind Luftdruck Luftfeuchtigkeit
    00:00 +19°C° 0 mm 1 m/S 733 mmHg 81%
    01:00 +18°C° 0 mm 1 m/S 733 mmHg 83%
    02:00 +17°C° 0 mm 2 m/S 733 mmHg 86%
    03:00 +16°C° 0 mm 2 m/S 733 mmHg 88%
    04:00 +16°C° 0 mm 2 m/S 733 mmHg 90%
    05:00 +17°C° 0 mm 2 m/S 733 mmHg 88%
    06:00 +18°C° 0 mm 2 m/S 733 mmHg 85%
    07:00 +18°C° 0 mm 2 m/S 734 mmHg 82%
    08:00 +20°C° 0 mm 2 m/S 734 mmHg 76%
    09:00 +22°C° 0 mm 3 m/S 734 mmHg 70%
    10:00 +24°C° 0 mm 3 m/S 734 mmHg 64%
    11:00 +25°C° 0,2 mm 3 m/S 734 mmHg 62%
    12:00 +26°C° 0,2 mm 3 m/S 734 mmHg 60%
    13:00 +27°C° 0,2 mm 3 m/S 734 mmHg 58%
    14:00 +27°C° 0,3 mm 3 m/S 734 mmHg 57%
    15:00 +27°C° 0,3 mm 3 m/S 734 mmHg 57%
    16:00 +27°C° 0,3 mm 3 m/S 734 mmHg 57%
    17:00 +26°C° 0,1 mm 3 m/S 734 mmHg 61%
    18:00 +25°C° 0,1 mm 2 m/S 734 mmHg 65%
    19:00 +24°C° 0,1 mm 2 m/S 734 mmHg 69%
    20:00 +23°C° 0 mm 2 m/S 734 mmHg 72%
    21:00 +21°C° 0 mm 1 m/S 734 mmHg 76%
    22:00 +20°C° 0 mm 1 m/S 734 mmHg 79%
    23:00 +19°C° 0 mm 1 m/S 734 mmHg 80%

    24 Juli, Dienstag

    Zeit Temperatur Niederschläge Wind Luftdruck Luftfeuchtigkeit
    00:00 +19°C° 0 mm 1 m/S 734 mmHg 82%
    01:00 +17°C° 0 mm 0 m/S 734 mmHg 83%
    02:00 +16°C° 0 mm 0 m/S 734 mmHg 85%
    03:00 +16°C° 0 mm 0 m/S 734 mmHg 87%
    04:00 +16°C° 0 mm 1 m/S 734 mmHg 89%
    05:00 +19°C° 0 mm 1 m/S 734 mmHg 85%
    06:00 +20°C° 0 mm 1 m/S 735 mmHg 81%
    07:00 +21°C° 0 mm 1 m/S 735 mmHg 77%
    08:00 +23°C° 0 mm 1 m/S 735 mmHg 72%
    09:00 +24°C° 0 mm 1 m/S 735 mmHg 67%
    10:00 +25°C° 0 mm 2 m/S 735 mmHg 62%
    11:00 +26°C° 0 mm 2 m/S 734 mmHg 59%
    12:00 +27°C° 0 mm 2 m/S 734 mmHg 57%
    13:00 +27°C° 0 mm 2 m/S 734 mmHg 55%
    14:00 +28°C° 0,1 mm 2 m/S 734 mmHg 55%
    15:00 +28°C° 0,1 mm 2 m/S 734 mmHg 56%
    16:00 +28°C° 0,1 mm 2 m/S 733 mmHg 56%
    17:00 +27°C° 0,1 mm 2 m/S 733 mmHg 62%
    18:00 +26°C° 0,1 mm 2 m/S 733 mmHg 67%
    19:00 +25°C° 0,1 mm 2 m/S 733 mmHg 72%
    20:00 +23°C° 0 mm 2 m/S 733 mmHg 76%
    21:00 +22°C° 0 mm 1 m/S 733 mmHg 79%
    22:00 +21°C° 0 mm 1 m/S 733 mmHg 83%
    23:00 +20°C° 0 mm 1 m/S 733 mmHg 85%

    25 Juli, Mittwoch

    Zeit Temperatur Niederschläge Wind Luftdruck Luftfeuchtigkeit
    00:00 +19°C° 0 mm 1 m/S 733 mmHg 87%
    01:00 +17°C° 0 mm 0 m/S 733 mmHg 89%
    02:00 +16°C° 0 mm 0 m/S 733 mmHg 90%
    03:00 +16°C° 0 mm 0 m/S 733 mmHg 91%
    04:00 +16°C° 0 mm 0 m/S 733 mmHg 91%
    05:00 +17°C° 0 mm 0 m/S 734 mmHg 88%
    06:00 +20°C° 0 mm 1 m/S 734 mmHg 84%
    07:00 +22°C° 0 mm 1 m/S 734 mmHg 80%
    08:00 +23°C° 0 mm 1 m/S 734 mmHg 74%
    09:00 +24°C° 0 mm 2 m/S 734 mmHg 69%
    10:00 +25°C° 0 mm 2 m/S 734 mmHg 63%
    11:00 +26°C° 0 mm 3 m/S 734 mmHg 59%
    12:00 +27°C° 0 mm 3 m/S 734 mmHg 55%
    13:00 +28°C° 0 mm 3 m/S 734 mmHg 50%
    14:00 +28°C° 0 mm 3 m/S 733 mmHg 49%
    15:00 +28°C° 0 mm 3 m/S 733 mmHg 49%
    16:00 +28°C° 0 mm 2 m/S 733 mmHg 48%
    17:00 +27°C° 0 mm 2 m/S 733 mmHg 54%
    18:00 +26°C° 0 mm 2 m/S 733 mmHg 61%
    19:00 +25°C° 0 mm 2 m/S 733 mmHg 67%
    20:00 +23°C° 0 mm 1 m/S 733 mmHg 71%
    21:00 +22°C° 0 mm 1 m/S 733 mmHg 76%
    22:00 +20°C° 0 mm 1 m/S 734 mmHg 81%
    23:00 +20°C° 0 mm 1 m/S 734 mmHg 82%

    26 Juli, Donnerstag

    Zeit Temperatur Niederschläge Wind Luftdruck Luftfeuchtigkeit
    00:00 +20°C° 0 mm 1 m/S 734 mmHg 83%
    01:00 +19°C° 0 mm 1 m/S 734 mmHg 84%
    02:00 +19°C° 0 mm 1 m/S 734 mmHg 85%
    03:00 +19°C° 0 mm 1 m/S 734 mmHg 86%
    04:00 +16°C° 0 mm 0 m/S 734 mmHg 87%
    05:00 +18°C° 0 mm 0 m/S 734 mmHg 81%
    06:00 +19°C° 0 mm 0 m/S 734 mmHg 76%
    07:00 +21°C° 0 mm 0 m/S 734 mmHg 71%
    08:00 +25°C° 0 mm 1 m/S 734 mmHg 64%
    09:00 +27°C° 0 mm 1 m/S 735 mmHg 58%
    10:00 +29°C° 0 mm 1 m/S 735 mmHg 52%
    11:00 +29°C° 0 mm 1 m/S 734 mmHg 50%
    12:00 +30°C° 0 mm 1 m/S 734 mmHg 47%
    13:00 +30°C° 0 mm 1 m/S 734 mmHg 45%
    14:00 +30°C° 0 mm 1 m/S 734 mmHg 45%
    15:00 +30°C° 0 mm 1 m/S 734 mmHg 44%
    16:00 +30°C° 0 mm 1 m/S 734 mmHg 44%
    17:00 +29°C° 0 mm 1 m/S 734 mmHg 50%
    18:00 +28°C° 0 mm 1 m/S 734 mmHg 55%
    19:00 +27°C° 0 mm 1 m/S 734 mmHg 61%
    20:00 +25°C° 0 mm 1 m/S 734 mmHg 64%
    21:00 +24°C° 0 mm 1 m/S 734 mmHg 67%
    22:00 +22°C° 0 mm 1 m/S 734 mmHg 70%
    23:00 +22°C° 0 mm 1 m/S 734 mmHg 71%
    Mehr zeigen